sat.trackr.live / text

‹ back to catalog

STARLINK-4606

NORAD 53632 · 2022-104AW

PAYLOAD ACTIVE UNKNOWN

§ Identity

Operator
Country
US
Launch date
2022-08-28
Launch site
AFETR
Launch vehicle
Mass (kg)
RCS (m²)

Purposes: comms

External: N2YO · Heavens-Above · Gunter

§ Orbital elements

Epoch: 2026-05-24T23:39:50.305824Z

Period
95.44 min
Inclination
53.2156°
Eccentricity
0.0001366
Mean motion
15.08832396 rev/d
Perigee alt
538.8 km
Apogee alt
540.7 km
Semi-major
6,917.9 km
B*
1.0857e-5
RAAN
241.5922°
Arg perigee
81.0979°
Mean anomaly
279.0167°
Rev number
20,774

§ Raw data

STARLINK-46061 53632U 22104AW  26144.98599891 -.00000115  00000+0  10857-4 0  99952 53632  53.2156 241.5922 0001366  81.0979 279.0167 15.08832396207745

JSON: /api/v1/satellites/53632 · /tle

For live sub-satellite position, see the globe view (requires WebGL).

§ Visibility from observer

Set your observer location to see the next 7 days of passes ≥ 10°. The values pass through the URL so the page stays shareable.

No JS? Fill the form by hand. The geolocation button needs JavaScript.